SL-16 DEB, 22406

Orbit data source: Space-Track

SL-16 DEB, 22406 is space debris in LEO originally from a launch on Fri, 25 Dec 1992 UTC launched from the Tyuratam Missile And Space Complex (TTMTR). Debris objects in space refer to the collection of defunct objects orbiting the Earth. Examples of debris include non-operational satellites, rocket bodies, and fragments generated from explosions, collisions, or faulty payload assembly.

Loading next visibility...
Identifier
22406, 1992-093CX
Orbit
LEO
Country
Flag of CISCIS
Related business
Manufacturer
Unknown
Mission
Spacecraft
Bus & Motor
Unknown
Mass
Unknown
Launch date (UTC)
1992-12-25 (33 years ago)
Launch vehicle
Unknown
Launch site
Tyuratam Missile And Space Complex (TTMTR)
Object type
Payload
Rocket body
Debris
Shape & HBR
Unknown shape, 0.1 m
Radar Cross Section
Small (<0.1 m²)

Expand to show TLE details & history
Last TLE update: 1 day ago

TLE from 1 day ago
0 SL-16 DEB
1 22406U 92093CX  26036.52314978  .00000385  00000-0  34858-3 0  9990
2 22406  70.7531  85.8222 0169360  98.1666  23.8005 13.83632981665589
Epoch: 2026-02-05T12:33Z
TLE epoch observation values (Epoch: 2026-02-05T12:33:20.140Z)
Latitude
52.66295°
Longitude
-85.26954°
Altitude
845.799 km
Speed
7.492 km/s
True Right ascension
15h 54m 57s
True Declination
52° 29' 56"
Sunlit
Object was in daylight at epoch
Visualization orbit readout
Latitude
Unknown
Longitude
Unknown
Altitude
Unknown
Speed
Unknown
Apparent Right ascension
Unknown
Apparent Declination
Unknown
Sunlit
N/A
Visualization observer readout
Local Sidereal Time
15:52:06
Azimuth
Unknown
Elevation
Unknown
Doppler factor
Unknown
Orbital elements
Apogee altitude
1,073.101 km
Perigee altitude
824.916 km
Semi-major axis
7,327.145 km
Eccentricity
0.01694
Inclination
70.7531°
RAAN
85.8222°
Arg. of periapsis
98.1666°
True anomaly
24.59912°
Mean anomaly
23.8005°
Eccentric anomaly
24.19825°
Mean motion
3.46052 °/min
Orbital period
104.03 mins
BSTAR
0.00034858
Loading maneuver chart data...
Computing Atmospheric mass density...

Documentation

Showing up to 5 results
|